[[{"header":{"parameterUnit":"m.s-1","parameterCategory":1,"la1":30.2991,"la2":30.254,"lo1":-89.0895,"lo2":-89.0444,"dy":0.0017,"dx":0.0017,"nx":28,"ny":28,"refTime":"2024-08-19T21:00:00:Z","depth":0,"parameterNumber":2,"parameterNumberName":"U-component_of_WINDS"},"data":[0,0,0,0,0,0,0,0,0,0,0,0,0,0,0,0,0,0,0,0,0,0,0,0,0,0,0,0,0,0,0,0,0,0,0,0,0,0,0,0,0,0,0,0,0,0,0,0,0,0,0,0,0,0,0,0,0,0,0.5609,0.561,0,0.5687,0.5688,0.5689,0.571,0.5709,0.5709,0.5708,0.5792,0.5795,0.5797,0,0,0,0,0,0,0,0,0,0,0,0,0,0.5481,0.5483,0.5609,0.561,0.5611,0.5687,0.5688,0.5689,0.571,0.5709,0.5709,0.5708,0.5791,0.5794,0.5798,0,0,0,0,0,0,0,0,0,0,0,0,0,0.5546,0.5484,0.5609,0.563,0.5633,0.5687,0.5688,0.569,0.571,0.5709,0.5708,0.5708,0.579,0.5794,0.5798,0.5838,0,0,0.581,0.5812,0,0,0,0,0,0,0,0,0.5542,0.5551,0.5626,0.5629,0.5632,0.5688,0.5674,0.5739,0.571,0.5681,0.5708,0.5707,0.5758,0.5765,0.5781,0.5842,0.5845,0.5811,0.5813,0.5815,0.5816,0,0,0,0,0,0,0,0.5538,0.5547,0.564,0.5627,0.5631,0.5637,0.5646,0.5687,0.5723,0.5683,0.5685,0.5694,0.576,0.5777,0.5783,0.5846,0.5811,0.5814,0.5817,0.5818,0.5944,0.5944,0,0,0,0,0,0,0.5529,0.5543,0.5638,0.5643,0.5584,0.564,0.565,0.5671,0.5722,0.5729,0.5694,0.5694,0.5771,0.5779,0.5786,0.5836,0.5815,0.5819,0.5821,0.5943,0.5944,0.5945,0,0,0,0,0,0,0.5526,0.5537,0.5635,0.5593,0.5606,0.5643,0.5667,0.5673,0.569,0.5731,0.5738,0.5705,0.5771,0.5781,0.5825,0.5839,0.582,0.5824,0.5942,0.5943,0.5944,0.5936,0,0,0,0,0,0,0.5522,0.5536,0.555,0.5594,0.5608,0.567,0.5668,0.5675,0.5697,0.5698,0.5743,0.575,0.5771,0.5818,0.5829,0.5845,0.5827,0.594,0.5942,0.5944,0.5935,0.5937,0.5938,0,0,0,0,0,0.5518,0.5546,0.5551,0.5562,0.5627,0.5671,0.568,0.5702,0.5698,0.5713,0.5739,0.5748,0.5836,0.5823,0.5834,0.5852,0.594,0.5942,0.5944,0.5934,0.5936,0.5938,0,0,0,0,0,0,0.5505,0.5552,0.5558,0.5601,0.5631,0.5674,0.5694,0.5704,0.5737,0.5737,0.5765,0.5775,0.5817,0.5839,0.5823,0.5893,0.5888,0.5893,0.5877,0.5879,0.5881,0.5874,0.5831,0,0,0,0,0,0.5506,0.5537,0.5577,0.5611,0.5626,0.5657,0.5677,0.5692,0.5725,0.5739,0.5768,0.5801,0.5837,0.5859,0.5894,0.5938,0.5949,0.5956,0.5958,0.5959,0.5962,0.5988,0.5992,0.5952,0.5951,0.5951,0,0,0.5511,0.554,0.5558,0.5609,0.5634,0.5666,0.5668,0.5702,0.5726,0.5745,0.5787,0.581,0.5849,0.5893,0.5914,0.5913,0.5976,0.5962,0.5962,0.5965,0.599,0.5994,0.5997,0.5953,0.5953,0.5952,0,0,0.5535,0.556,0.5591,0.5616,0.5655,0.5676,0.5683,0.5724,0.574,0.5783,0.5797,0.5828,0.5888,0.5915,0.5936,0.5971,0.5981,0.5982,0.5991,0.6015,0.6018,0.6021,0.6034,0.6038,0.5986,0.5986,0.5986,0,0.5536,0.5583,0.5606,0.5639,0.5661,0.5678,0.571,0.5734,0.5782,0.5798,0.5795,0.5871,0.5899,0.5949,0.5958,0.5975,0.5985,0.5977,0.6016,0.6019,0.6022,0.6034,0.6039,0.5985,0.5985,0.5986,0.5986,0,0.5583,0.5615,0.5636,0.568,0.5705,0.5737,0.5766,0.5789,0.5801,0.5823,0.5867,0.5901,0.5943,0.5956,0.5969,0.6009,0.6007,0.601,0.6006,0.6025,0.6037,0.6042,0.5985,0.5985,0.5985,0.5985,0,0,0.56,0.5657,0.5664,0.5684,0.5728,0.5754,0.5788,0.5828,0.5847,0.588,0.5909,0.596,0.5962,0.5987,0.6004,0.6025,0.6051,0.6026,0.6027,0.6029,0.6097,0.6094,0.6099,0.6058,0.6059,0.606,0.6094,0,0.5629,0.5688,0.571,0.5759,0.579,0.5807,0.5836,0.5867,0.5888,0.5919,0.5943,0.5978,0.5979,0.5994,0.6016,0.6043,0.6065,0.6041,0.6086,0.6088,0.6075,0.6106,0.6103,0.6133,0.6099,0.61,0.61,0,0.5671,0.5703,0.5755,0.5795,0.5808,0.5834,0.5872,0.5901,0.5937,0.5951,0.5978,0.5994,0.6031,0.6025,0.6077,0.606,0.608,0.6096,0.6098,0.6103,0.6095,0.6111,0.6143,0.6148,0.6108,0.6107,0.6107,0,0.5678,0.5735,0.5773,0.579,0.5837,0.5855,0.5876,0.5911,0.5934,0.5968,0.5983,0.6021,0.6042,0.6073,0.6098,0.6091,0.6148,0.6144,0.6162,0.6161,0.6172,0.6171,0.6208,0.6186,0.6186,0.6186,0.6186,0,0.5708,0.5739,0.5776,0.58,0.5835,0.586,0.5895,0.5918,0.5949,0.5978,0.5996,0.6023,0.6056,0.6087,0.6108,0.6148,0.6158,0.6171,0.6176,0.6169,0.6167,0.6182,0.6181,0.6187,0.6187,0.6187,0.6186,0,0.5722,0.5748,0.5791,0.5832,0.5843,0.5867,0.5904,0.5928,0.595,0.5987,0.5997,0.6032,0.607,0.6099,0.615,0.6164,0.6206,0.6212,0.6194,0.6196,0.6212,0.621,0.6259,0.6267,0.624,0.624,0.624,0,0.5739,0.5763,0.5807,0.5827,0.5847,0.5879,0.5902,0.5929,0.5952,0.5995,0.6014,0.6053,0.6086,0.6147,0.6178,0.6217,0.6223,0.6238,0.6229,0.6221,0.6223,0.6221,0.6224,0.6239,0.6239,0.6239,0.6239,0,0.5767,0.5778,0.581,0.5846,0.5872,0.5902,0.5933,0.5949,0.5981,0.6006,0.6045,0.607,0.6121,0.616,0.6202,0.6226,0.6238,0.6242,0.6248,0.624,0.6229,0.6235,0.6196,0.624,0.624,0.624,0.624,0.624,0.5783,0.5805,0.5839,0.5873,0.5899,0.5927,0.5951,0.5976,0.6008,0.6051,0.6065,0.6105,0.6141,0.6199,0.6222,0.6255,0.6255,0.6264,0.6266,0.6268,0.6267,0.6224,0.6263,0.6263,0.6263,0.6263,0.6263,0,0.5811,0.5833,0.5865,0.5906,0.5934,0.5942,0.5977,0.5999,0.6034,0.6066,0.6097,0.6142,0.6181,0.6215,0.6255,0.6274,0.6281,0.6284,0.6283,0.6288,0.6265,0.6255,0.6278,0.6278,0.6278,0.6278,0.6278,0.6278,0.5829,0.5866,0.5882,0.5933,0.5956,0.5994,0.6013,0.6039,0.6065,0.6114,0.6145,0.6167,0.62,0.6243,0.6278,0.6288,0.6302,0.6303,0.6314,0.6291,0.6289,0.6288,0.6279,0.6306,0.6306,0.6334,0.6334,0.6334]},{"header":{"parameterUnit":"m.s-1","parameterCategory":1,"la1":30.2991,"la2":30.254,"lo1":-89.0895,"lo2":-89.0444,"dy":0.0017,"dx":0.0017,"nx":28,"ny":28,"refTime":"2024-08-19T21:00:00:Z","depth":0,"parameterNumber":3,"parameterNumberName":"V-component_of_WINDS"},"data":[0,0,0,0,0,0,0,0,0,0,0,0,0,0,0,0,0,0,0,0,0,0,0,0,0,0,0,0,0,0,0,0,0,0,0,0,0,0,0,0,0,0,0,0,0,0,0,0,0,0,0,0,0,0,0,0,0,0,-2.0357,-2.0358,0,-2.0502,-2.0503,-2.0505,-2.0566,-2.0566,-2.0565,-2.0565,-2.0712,-2.0716,-2.072,0,0,0,0,0,0,0,0,0,0,0,0,0,-2.0133,-2.0136,-2.0357,-2.0358,-2.036,-2.0501,-2.0503,-2.0505,-2.0566,-2.0566,-2.0565,-2.0565,-2.071,-2.0715,-2.072,0,0,0,0,0,0,0,0,0,0,0,0,0,-2.0249,-2.0138,-2.0356,-2.0408,-2.0414,-2.0501,-2.0503,-2.0506,-2.0566,-2.0566,-2.0565,-2.0565,-2.0709,-2.0715,-2.0721,-2.0768,0,0,-2.074,-2.0743,0,0,0,0,0,0,0,0,-2.0242,-2.0257,-2.0398,-2.0404,-2.0411,-2.0515,-2.0478,-2.0594,-2.0566,-2.0508,-2.0565,-2.0565,-2.0647,-2.0658,-2.0686,-2.0774,-2.0781,-2.0741,-2.0744,-2.0747,-2.0749,0,0,0,0,0,0,0,-2.0234,-2.0251,-2.0414,-2.04,-2.0408,-2.0423,-2.044,-2.05,-2.0578,-2.0513,-2.0518,-2.0534,-2.065,-2.068,-2.069,-2.0783,-2.074,-2.0746,-2.075,-2.0752,-2.0919,-2.092,0,0,0,0,0,0,-2.0218,-2.0244,-2.0409,-2.0418,-2.0324,-2.0428,-2.0446,-2.0482,-2.0577,-2.0592,-2.0535,-2.0537,-2.0669,-2.0683,-2.0695,-2.0757,-2.0747,-2.0753,-2.0756,-2.0918,-2.0919,-2.092,0,0,0,0,0,0,-2.0213,-2.0232,-2.0404,-2.0333,-2.0356,-2.0432,-2.0473,-2.0485,-2.0515,-2.0594,-2.0608,-2.0551,-2.067,-2.0687,-2.075,-2.0763,-2.0756,-2.0761,-2.0918,-2.0919,-2.092,-2.0881,0,0,0,0,0,0,-2.0206,-2.023,-2.0248,-2.0333,-2.0359,-2.0455,-2.0473,-2.0489,-2.0526,-2.053,-2.0612,-2.0626,-2.0671,-2.074,-2.0756,-2.0772,-2.0766,-2.0917,-2.0918,-2.0919,-2.0881,-2.088,-2.088,0,0,0,0,0,-2.0198,-2.023,-2.0248,-2.0268,-2.0384,-2.0456,-2.0471,-2.0523,-2.0527,-2.0546,-2.0597,-2.0623,-2.0759,-2.0746,-2.0764,-2.0782,-2.0916,-2.0918,-2.0919,-2.0881,-2.088,-2.088,0,0,0,0,0,0,-2.0144,-2.0242,-2.0263,-2.0325,-2.0382,-2.0466,-2.0492,-2.052,-2.0576,-2.0578,-2.0639,-2.0657,-2.0715,-2.0755,-2.0739,-2.0833,-2.084,-2.0845,-2.0805,-2.0805,-2.0804,-2.0793,-2.0771,0,0,0,0,0,-2.0139,-2.019,-2.0273,-2.0319,-2.0347,-2.0414,-2.0448,-2.0483,-2.0544,-2.0568,-2.0624,-2.0682,-2.0738,-2.0774,-2.0829,-2.0887,-2.0907,-2.0909,-2.0908,-2.0907,-2.0911,-2.0946,-2.0948,-2.0925,-2.0925,-2.0925,0,0,-2.013,-2.019,-2.0218,-2.031,-2.0358,-2.041,-2.0434,-2.0487,-2.0526,-2.0576,-2.064,-2.0682,-2.0752,-2.0813,-2.0843,-2.0848,-2.0922,-2.0909,-2.0908,-2.0912,-2.0948,-2.095,-2.0952,-2.0926,-2.0926,-2.0926,0,0,-2.014,-2.019,-2.0235,-2.0283,-2.0357,-2.0402,-2.0412,-2.0493,-2.0524,-2.0589,-2.0628,-2.0676,-2.0771,-2.0819,-2.0856,-2.0886,-2.0913,-2.0903,-2.0898,-2.0932,-2.0934,-2.0936,-2.0947,-2.0951,-2.0906,-2.0906,-2.0906,0,-2.0119,-2.0198,-2.0254,-2.0305,-2.0345,-2.0394,-2.044,-2.0484,-2.0572,-2.0598,-2.0603,-2.0725,-2.0775,-2.0849,-2.0857,-2.0885,-2.0899,-2.0893,-2.0929,-2.0932,-2.0934,-2.0946,-2.095,-2.0904,-2.0905,-2.0905,-2.0905,0,-2.0169,-2.0224,-2.0251,-2.0336,-2.0379,-2.0427,-2.049,-2.0527,-2.0559,-2.0603,-2.067,-2.0732,-2.0802,-2.0822,-2.0853,-2.0901,-2.0902,-2.0917,-2.0925,-2.0934,-2.0946,-2.0951,-2.0902,-2.0903,-2.0903,-2.0903,0,0,-2.0147,-2.0264,-2.0273,-2.0313,-2.0399,-2.0442,-2.0493,-2.0563,-2.0593,-2.0653,-2.0697,-2.0778,-2.0793,-2.0835,-2.0872,-2.0902,-2.0923,-2.0914,-2.0916,-2.0914,-2.0981,-2.0969,-2.0973,-2.0942,-2.0943,-2.0944,-2.0976,0,-2.0169,-2.0263,-2.0316,-2.0388,-2.044,-2.0489,-2.0534,-2.0591,-2.0635,-2.0685,-2.0733,-2.0789,-2.0805,-2.0831,-2.0862,-2.0914,-2.0938,-2.0912,-2.0984,-2.0986,-2.0965,-2.098,-2.0967,-2.0994,-2.0981,-2.0981,-2.0982,0,-2.0206,-2.0266,-2.0344,-2.0426,-2.0449,-2.0489,-2.0558,-2.0605,-2.0672,-2.0702,-2.0749,-2.0787,-2.0843,-2.0847,-2.0926,-2.0908,-2.0941,-2.0971,-2.0973,-2.0982,-2.0984,-2.0989,-2.1004,-2.1008,-2.099,-2.0989,-2.0989,0,-2.0183,-2.0283,-2.0344,-2.0376,-2.0472,-2.0499,-2.0541,-2.0607,-2.0646,-2.0707,-2.0733,-2.0798,-2.0834,-2.0884,-2.0939,-2.0937,-2.1013,-2.1021,-2.1039,-2.1038,-2.1053,-2.1051,-2.1073,-2.1074,-2.1074,-2.1073,-2.1073,0,-2.0202,-2.0248,-2.0335,-2.0372,-2.0425,-2.0485,-2.0536,-2.0582,-2.0641,-2.0687,-2.0733,-2.0776,-2.0846,-2.0897,-2.094,-2.1,-2.1015,-2.1041,-2.1052,-2.1037,-2.1034,-2.1059,-2.1059,-2.1075,-2.1074,-2.1074,-2.1074,0,-2.0185,-2.0245,-2.0314,-2.0401,-2.0423,-2.0459,-2.0533,-2.0571,-2.0618,-2.0676,-2.0694,-2.0767,-2.083,-2.089,-2.0974,-2.1003,-2.1063,-2.1077,-2.104,-2.1046,-2.1062,-2.1059,-2.1101,-2.111,-2.1103,-2.1103,-2.1103,0,-2.0193,-2.0229,-2.0321,-2.0356,-2.0397,-2.0452,-2.0493,-2.0554,-2.0595,-2.0675,-2.0703,-2.077,-2.0827,-2.0926,-2.0987,-2.1052,-2.1068,-2.1078,-2.1078,-2.1062,-2.1069,-2.1066,-2.107,-2.1077,-2.1076,-2.1076,-2.1076,0,-2.02,-2.0229,-2.0286,-2.0354,-2.0402,-2.0458,-2.0516,-2.0542,-2.0615,-2.0658,-2.0724,-2.0768,-2.0855,-2.0922,-2.0994,-2.1037,-2.1069,-2.1076,-2.1084,-2.1069,-2.1046,-2.1059,-2.1038,-2.1074,-2.1075,-2.1075,-2.1075,-2.1075,-2.0197,-2.0232,-2.0302,-2.0365,-2.0416,-2.0469,-2.0509,-2.0562,-2.0618,-2.0694,-2.0727,-2.0794,-2.0862,-2.0963,-2.1006,-2.1059,-2.1066,-2.1077,-2.108,-2.1082,-2.1079,-2.1038,-2.1072,-2.1073,-2.1073,-2.1073,-2.1073,0,-2.0207,-2.0255,-2.0312,-2.0393,-2.0442,-2.0469,-2.0535,-2.0575,-2.0634,-2.0694,-2.075,-2.0826,-2.0892,-2.0958,-2.1027,-2.1057,-2.1073,-2.1073,-2.1071,-2.1081,-2.1068,-2.1055,-2.1059,-2.1059,-2.1059,-2.1059,-2.1059,-2.1059,-2.0218,-2.028,-2.0318,-2.0405,-2.0453,-2.052,-2.0556,-2.0605,-2.0655,-2.0738,-2.0793,-2.0836,-2.09,-2.0974,-2.1035,-2.1053,-2.1076,-2.1072,-2.1094,-2.1081,-2.1081,-2.1082,-2.107,-2.1076,-2.1076,-2.1102,-2.1102,-2.1102]}]]